STARLINK-35896

Last updated on Mon Dec 15 2025 00:02:12 GMT+0000 (Coordinated Universal Time)

1 66824U 25280D 25348.25003472 -.01745958 00000+0 -13487-1 0 9992 2 66824 69.9946 194.5392 0003473 270.2677 33.8916 15.74644458 3148
UTC large
Height (km)
Speed (km/s)
/
Latitude / Longitude
Inclination (degrees)
Orbital Period (minutes)
Azimuth
Elevation
Range (km)
Doppler Factor

Next 0 passes for location: London (51.5072 / 0.1276)

Sorry there are no passes over London.